Starlink 35481

operational
NORAD ID: 66248 Int'l Des: 2025-245 Owner: SPXS Country: US Constellation: starlink
LEOCIRCULAR

Starlink 35481について

説明を読み込み中...

リアルタイム位置

3D地球を読み込み中...

次回通過

高度履歴

Altitude vs Time

uPlot chart will show altitude changes over time

軌道要素

1 66248C 25245P 25303.07895833 .00474640 00000+0 74666-3 0 3035
2 66248 53.1599 182.3227 0004899 304.2819 152.2257 16.02691130 16
Epoch: Oct 30, 2025 • Age: 25 hours

現在のステータス

高度 266.5 km
速度 7.75 km/s
衛星直下点 -17.44°S, 103.99°E
打ち上げ日 Oct 29, 2025
運用期間 2 days
タイプ internet

技術仕様

分類 Payload
質量 575.00 kg
乾燥質量 530.00 kg
総質量 575.00 kg
長さ 0.30 m
直径 4.10 m
スパン 29.00 m
形状 Box + pan
製造者 SPXS
バスタイプ Starlink V2MO
フェーズステータス In Orbit
所有者/国 SPXS/US

大規模コンステレーション

Loading constellations...